Regional Weather Roundup
Issued by NWS

Home | Current Version | Previous Version | Text Only | Print | Product List | Glossary Off
Versions: 1 2 3 4 5 6 7 8 9 10 11 12 13 14 15 16 17 18 19 20 21 22 23 24 25 26 27 28 29 30 31 32 33 34 35 36 37 38 39 40 41 42 43 44 45 46 47 48 49 50

000
ASUS43 KOAX 220202
RWRNE

WEATHER ROUNDUP FOR NEBRASKA
NATIONAL WEATHER SERVICE OMAHA NE
800 PM CST SAT JAN 21 2017

NOTES: SATELLITE DATA IS BEING USED TO AUGMENT CLOUD COVER ABOVE
       12000 FEET.
       "FAIR" INDICATES FEW OR NO CLOUDS BELOW 12,000 FEET WITH NO
       SIGNIFICANT WEATHER AND/OR OBSTRUCTIONS TO VISIBILITY.

  * THESE STATIONS DO NOT REPORT WEATHER SUCH AS RAIN...SNOW OR FOG.

NEZ001>004-019>022-054>056-220300-
NEBRASKA PANHANDLE

CITY           SKY/WX    TMP DP  RH WIND       PRES   REMARKS
SCOTTSBLUFF    MOCLDY    31  27  85 N6        29.54R WCI  25
ALLIANCE       CLEAR     26  22  84 S3        29.54R
CHADRON        CLOUDY    26  23  88 W6        29.57R WCI  19
KIMBALL        CLOUDY    34  30  83 W3        29.55R
SIDNEY         CLOUDY    28  24  85 CALM      29.54R
$$

NEZ057>060-069>072-079>082-220300-
SOUTHWEST NEBRASKA

CITY           SKY/WX    TMP DP  RH WIND       PRES   REMARKS
NORTH PLATTE   CLEAR     28  25  88 CALM      29.53R
IMPERIAL       CLOUDY    33  26  75 N7        29.54R WCI  27
LEXINGTON      CLEAR     33  29  87 CALM      29.52R
MCCOOK         CLEAR     34  28  79 N10       29.52R WCI  26
OGALLALA       CLOUDY    32  27  83 CALM      29.54R
$$

NEZ005>010-023>029-035>040-094-220300-
NORTH CENTRAL NEBRASKA

CITY           SKY/WX    TMP DP  RH WIND       PRES   REMARKS
VALENTINE      CLEAR     29  26  89 W8        29.54R WCI  21
AINSWORTH      CLEAR     30  27  91 W5        29.54R WCI  25
BROKEN BOW     CLEAR     33  30  88 N6        29.51R WCI  28
O`NEILL        CLEAR     34  29  83 NW8       29.53R WCI  27
ORD            CLEAR     32  28  85 NW7       29.52R WCI  26
THEDFORD       CLEAR     35  31  83 CALM      29.55R
$$

NEZ041-046>049-061>064-073>077-083>087-220300-
SOUTH CENTRAL NEBRASKA

CITY           SKY/WX    TMP DP  RH WIND       PRES   REMARKS
GRAND ISLAND   CLEAR     32  32 100 CALM      29.52R
AURORA         CLEAR     35  35 100 SE3       29.52R
HASTINGS       CLEAR     35  33  92 CALM      29.53R
HEBRON         CLEAR     34  33  96 CALM      29.52R
HOLDREGE       CLEAR     34  32  92 N3        29.51R
KEARNEY *      CLEAR    N/A N/A N/A MISG        N/A
YORK           CLEAR     36  36 100 CALM      29.53R
$$

NEZ011>018-030>034-042>045-220300-
NORTHEAST NEBRASKA

CITY           SKY/WX    TMP DP  RH WIND       PRES   REMARKS
NORFOLK        CLEAR     35  30  82 SW5       29.51R WCI  31
ALBION         CLEAR     33  28  82 CALM      29.52R
BLAIR          CLEAR     41  38  88 SW3       29.52S
FREMONT        CLEAR     35  35 100 CALM      29.53R
TEKAMAH        CLEAR     35  32  88 N5        29.52R WCI  31
WAYNE          CLEAR     31  31  98 CALM      29.53R
$$

NEZ050>053-065>068-078-088>093-220300-
SOUTHEAST NEBRASKA

CITY           SKY/WX    TMP DP  RH WIND       PRES   REMARKS
LINCOLN        CLEAR     34  31  88 N5        29.54R WCI  30
OMAHA EPPLEY   CLEAR     37  31  78 CALM      29.53R
BEATRICE       CLEAR     38  37  93 NE5       29.52R WCI  35
FALLS CITY     CLEAR     42  38  85 CALM      29.52R
NEBRASKA CITY  CLEAR     47  35  62 CALM      29.53S
PLATTSMOUTH    CLEAR     46  35  65 SW3       29.53S
$$

NEZ044-045-051>053-067-220300-
OMAHA AREA

CITY           SKY/WX    TMP DP  RH WIND       PRES   REMARKS
OMAHA EPPLEY   CLEAR     37  31  78 CALM      29.53R
BLAIR          CLEAR     41  38  88 SW3       29.52S
FREMONT        CLEAR     35  35 100 CALM      29.53R
MILLARD        CLEAR     38  37  93 CALM      29.53S
OFFUTT AFB     CLEAR     31  31 100 CALM      29.53R
PLATTSMOUTH    CLEAR     46  35  65 SW3       29.53S
WAHOO          FAIR      38  36  91 W3        29.53R
$$



USA.gov is the U.S. government's official web portal to all federal, state and local government web resources and services.